Regional Weather Roundup
Issued by NWS

Home | Current Version | Previous Version | Text Only | Print | Product List | Glossary On
Versions: 1 2 3 4 5 6 7 8 9 10 11 12 13 14 15 16 17 18 19 20 21 22 23 24 25 26 27 28 29 30 31 32 33 34 35 36 37 38 39 40 41 42 43 44 45 46 47 48 49 50
000
ASCA42 TJSJ 300311
RWRPR
PUERTO RICO/U.S. VIRGIN ISLANDS HOURLY WEATHER ROUNDUP
NATIONAL WEATHER SERVICE SAN JUAN PR
1100 PM AST TUE JUL 29 2014

PRZ001-004-300400-
PUERTO RICO

CITY           SKY/WX    TMP DP  RH WIND       PRES   REMARKS
SAN JUAN LMM   PTCLDY    81  73  78 CALM      30.08R
PONCE          CLEAR     79  72  78 CALM      30.03R
CEIBA          PTCLDY    77  73  88 CALM      30.09S
$$

PRZ006-007-300400-
U.S. VIRGIN ISLANDS

CITY           SKY/WX    TMP DP  RH WIND       PRES   REMARKS
CHARLOTTE AMA  CLEAR     81  75  83 E6        30.07R
CHRISTIANSTED  CLEAR     79  72  78 N5        30.08R
$$

HOURLY WEATHER ROUNDUP FOR THE NEWS MEDIA

CITY           SKY/WX    TMP DP  RH WIND       PRES   REMARKS
MIAMI          MOCLDY    85  73  67 SW5       30.00S HX  91
ORLANDO        CLEAR     77  76  96 SW3       29.95S
NEW YORK       MOCLDY    70  50  49 NW9       29.98R
NEWARK         PTCLDY    68  51  54 NW6       29.98R
CHICAGO        MOCLDY    70  56  61 W8        30.00R
HARTFORD       CLEAR     62  59  90 CALM      29.94R
BOSTON         PTCLDY    70  54  56 W6        29.93R
DALLAS         MOCLDY    80  65  59 CALM      30.05S
PHILADELPHIA   CLOUDY    71  53  52 NW8       29.99R



USA.gov is the U.S. government's official web portal to all federal, state and local government web resources and services.